Regional Weather Roundup
Issued by NWS

Home | Current Version | Previous Version | Graphics & Text | Print | Product List | Glossary On
Versions: 1 2 3 4 5 6 7 8 9 10 11 12 13 14 15 16 17 18 19 20 21 22 23 24 25 26 27 28 29 30 31 32 33 34 35 36 37 38 39 40 41 42 43 44 45 46 47 48 49 50
000
ASUS45 KSLC 051410
RWRUT

UTAH REGIONAL WEATHER ROUNDUP
NATIONAL WEATHER SERVICE SALT LAKE CITY UT
700 AM MST MON DEC 05 2016

UTZ001>011-023>025-051500-

NORTHERN UTAH

CITY           SKY/WX    TMP DP  RH WIND       PRES   REMARKS
BRIGHAM CITY     N/A     28   2  32 NW10G22   30.00R WCI  18
HILL AFB       NOT AVBL
LOGAN          PTCLDY   N/A N/A N/A NW22G28   29.96R
OGDEN          CLOUDY    28   6  39 N5        29.98R WCI  23
SALT LAKE CITY CLOUDY    32  13  45 NE7       30.00R WCI  26
TOOELE VALLEY  CLOUDY    32  16  51 W10       30.02R WCI  24
WENDOVER       PTCLDY    30   9  40 NW24G30   29.97R WCI  16
HEBER CITY     CLOUDY    30  18  59 NE12G18   29.86R WCI  21
WEST JORDAN    CLOUDY    29  28  95 N7        30.00R WCI  22

$$

UTZ011>015-024>027-051500-

CENTRAL/NORTHEAST UTAH

CITY           SKY/WX    TMP DP  RH WIND       PRES   REMARKS
PROVO AIRPORT  FLURRIES  32  18  56 N24G37    29.96R WCI  19
MOAB/CANYONLAN PTCLDY    23  17  78 NW8       29.82R WCI  14
DELTA          MOCLDY    32  23  69 N10       29.93R WCI  24
PRICE          CLOUDY    27  17  66 CALM      29.82R
RICHFIELD      PTCLDY    43  18  36 SW13      29.85R
ROOSEVELT      PTCLDY    23  18  80 W9        29.78F WCI  13
VERNAL         PTCLDY    19  14  81 VRB5      29.76R WCI  12

$$

UTZ013>016-019>022-027-051500-

SOUTHERN UTAH

CITY           SKY/WX    TMP DP  RH WIND       PRES   REMARKS
BRYCE CANYON   CLEAR     32  13  45 W13       29.89S WCI  22
CEDAR CITY     CLEAR     28  15  58 SW6       29.89S WCI  22
MILFORD        PTCLDY    34  10  37 S8        29.87R WCI  27
ST GEORGE      CLOUDY    30  16  55 CALM      29.96R
HANKSVILLE     PTCLDY    18  14  86 CALM      29.87R
KANAB          CLEAR     21  18  86 CALM      29.97S
BLANDING       PTCLDY    24  16  73 N5        29.97S WCI  18

$$

REGIONAL REPORTS     COLORADO/ARIZONA

CITY           SKY/WX    TMP DP  RH WIND       PRES   REMARKS
CRAIG, CO      CLOUDY    26  15  63 W9        29.70R WCI  17
GRAND JUNCTION CLOUDY    23  21  92 E3        29.82S
RIFLE, CO      CLOUDY    25  19  78 CALM      29.80R
MONTROSE, CO   CLOUDY    30  21  69 SE5       29.81S WCI  25
CORTEZ, CO     CLOUDY    26  21  81 NE3       29.90F
COLORADO CITY    N/A     21  19  93 SE3       29.94F
PAGE, AZ       PTCLDY    30  17  58 S5        29.89S WCI  25
GRAND CANYON   PTCLDY    20  17  88 NE3       29.96S
KINGMAN, AZ    PTCLDY    38  11  32 SE7       29.91S WCI  33
FLAGSTAFF, AZ  CLEAR     22  14  71 CALM      29.97F

$$

REGIONAL REPORTS    NEVADA/IDAHO/WYOMING

CITY           SKY/WX    TMP DP  RH WIND       PRES   REMARKS
LAS VEGAS, NV  PTCLDY    42  15  33 W5        29.91R
ELY, NY        CLEAR     25  16  68 W6        29.95R WCI  18
ELKO, NV       CLOUDY    27  15  61 SE5       30.03R WCI  22
POCATELLO, ID  PTCLDY    19  15  84 SW16      29.98R WCI   4
BURLEY, ID     CLEAR     19  13  77 W15G23    30.02R WCI   5
FORT BRIDGER,  CLOUDY    20  10  65 W23G31    29.82R WCI   4
EVANSTON, WY   CLOUDY    19   4  51 W16       29.85R WCI   4
ROCK SPRINGS,  CLOUDY    20   9  62 W29G43    29.76R WCI   1

$$



USA.gov is the U.S. government's official web portal to all federal, state and local government web resources and services.